Vorticity
nan nan nan nan nan nan nan nan nan nan nan nan nan nan nan nan nan nan nan nan nan nan nan nan nan nan nan nan nan nan nan nan nan nan nan nan nan nan nan nan nan nan nan
nan 8 8 8 9 8 8 8 8 8 8 9 9 9 10 9 9 8 6 9 10 9 9 8 9 9 7 14 11 8 11 13 10 7 10 10 6 9 11 10 11 10 nan
nan 8 8 8 8 8 8 9 9 9 9 9 9 8 9 10 9 10 7 9 11 10 8 8 8 8 8 10 10 10 11 13 11 10 8 9 8 8 8 10 9 10 nan
nan 8 8 8 8 8 9 9 9 10 10 9 9 10 10 11 12 10 7 8 11 10 9 9 8 9 9 10 10 11 11 12 12 13 10 10 10 8 9 8 8 8 nan
nan 8 8 8 8 9 9 9 9 10 10 9 9 9 10 12 9 7 10 7 10 10 10 10 8 5 10 13 10 11 14 13 9 10 10 9 10 8 9 9 8 8 nan
nan 8 8 8 8 9 9 9 10 10 10 9 9 9 10 8 4 6 11 12 10 11 10 10 11 9 11 9 6 11 12 10 11 9 9 8 10 12 9 8 8 10 nan
nan 8 8 8 8 9 9 9 9 9 9 10 9 9 9 7 6 9 11 12 10 11 11 10 10 10 12 11 4 5 9 10 12 12 11 11 10 9 9 11 10 8 nan
nan 8 8 8 8 9 9 9 9 9 9 9 8 8 9 7 6 8 13 13 9 10 11 11 10 8 13 14 6 8 10 7 11 13 11 12 12 9 9 9 8 9 nan
nan 8 9 8 8 8 9 8 9 9 8 9 8 8 8 7 7 9 13 12 10 10 11 11 12 8 8 14 12 8 9 13 9 9 11 11 10 14 15 9 6 6 nan
nan 9 9 8 8 8 9 9 9 9 8 8 9 10 9 9 8 9 12 11 10 10 10 11 9 7 9 12 15 13 12 8 6 9 11 12 13 14 12 11 10 10 nan
nan 10 9 8 9 9 9 10 9 9 9 9 10 11 12 11 9 9 10 11 10 9 11 10 5 6 11 13 15 13 10 10 12 11 10 10 10 10 12 12 11 11 nan
nan 10 9 8 8 10 10 9 10 9 9 10 11 11 12 11 10 8 8 9 10 12 12 10 5 7 11 12 13 11 14 15 12 11 11 10 10 10 10 11 10 10 nan
nan 9 9 9 9 9 10 10 10 10 10 10 11 10 10 10 11 11 10 9 12 12 10 11 10 10 13 9 8 13 15 15 12 11 10 10 10 10 10 11 11 12 nan
nan 9 9 10 9 9 9 10 10 10 10 10 10 9 9 9 11 9 11 12 12 11 10 12 12 14 12 10 10 11 11 10 11 11 11 11 11 11 11 11 11 10 nan
nan 10 9 11 10 10 9 9 9 7 6 7 8 8 9 9 8 9 9 9 10 11 13 13 11 12 11 11 10 10 10 10 11 11 11 11 11 11 11 11 11 11 nan
nan 9 10 10 10 10 10 14 12 9 9 10 10 9 9 9 8 12 11 10 12 12 15 11 10 11 11 10 9 9 9 10 10 11 10 10 11 10 10 11 11 11 nan
nan 7 10 10 10 10 10 9 14 16 12 12 14 12 11 11 14 11 11 12 13 13 14 11 10 10 10 10 10 10 10 10 10 11 10 11 11 10 11 12 11 11 nan
nan 9 7 10 10 10 10 10 10 8 12 15 10 10 12 12 11 9 12 15 12 11 10 10 10 11 10 10 11 10 10 10 10 11 11 11 11 11 11 10 10 9 nan
nan 9 9 9 11 10 10 11 10 10 10 11 12 11 8 9 10 9 10 13 12 11 10 10 10 11 10 10 11 10 10 10 11 11 11 11 10 10 10 10 9 10 nan
nan 12 7 8 10 10 10 10 10 10 10 11 11 12 12 8 8 9 11 11 10 10 10 11 11 10 11 11 10 11 11 10 11 10 10 10 11 11 10 11 11 11 nan
nan 17 11 6 10 10 11 11 10 10 11 11 12 10 9 12 11 10 10 11 11 10 10 10 10 10 11 11 11 11 11 10 10 10 10 10 11 11 11 11 11 11 nan
nan 12 12 10 10 11 10 11 11 11 11 12 12 10 9 11 11 10 10 9 10 10 10 10 11 11 11 11 11 11 11 10 9 10 9 10 11 12 12 11 11 12 nan
nan 11 10 10 11 11 10 11 11 12 11 12 11 10 11 11 10 10 10 10 11 11 11 11 11 11 11 11 12 12 10 10 10 10 10 11 12 11 11 11 11 11 nan
nan 12 11 10 11 11 11 11 11 11 11 11 11 11 11 11 11 11 10 10 10 11 11 11 11 10 11 11 11 11 11 10 10 10 12 13 11 11 12 12 11 12 nan
nan 12 12 11 11 11 11 11 11 11 11 11 11 11 11 12 11 11 10 10 10 11 10 11 10 9 9 10 10 9 10 12 13 14 14 12 11 12 13 12 12 12 nan
nan nan nan nan nan nan nan nan nan nan nan nan nan nan nan nan nan nan nan nan nan nan nan nan nan nan nan nan nan nan nan nan nan nan nan nan nan nan nan nan nan nan nan
CAPE
0 0 0 0 0 0 0 0 0 0 0 0 0 0 0 0 0 4 14 1 1 4 4 15 12 5 37 16 35 69 68 35 25 26 20 16 11 5 0 1 1 14 16
0 0 0 0 0 0 0 0 0 0 0 0 0 0 0 0 0 1 15 4 0 1 2 12 18 2 8 41 23 5 59 66 35 11 19 18 16 9 8 2 1 0 1
0 0 0 0 0 0 0 0 0 0 0 0 0 0 0 0 0 0 10 3 1 0 1 4 11 14 29 36 24 40 40 29 58 24 23 19 7 12 11 12 7 1 0
0 0 0 0 0 0 0 0 0 0 0 0 0 0 0 0 0 5 7 3 0 0 0 1 1 4 27 44 26 33 22 15 45 62 47 36 32 34 23 13 9 4 2
0 0 0 0 0 0 0 0 0 0 0 0 0 0 0 0 0 20 11 10 2 0 0 0 1 2 41 41 33 21 20 25 21 14 13 26 19 10 18 19 5 17 15
0 0 0 0 0 0 0 0 0 0 0 0 0 0 0 0 0 7 24 13 4 2 0 0 0 2 25 25 22 12 10 16 20 6 3 9 16 11 17 17 11 7 6
0 0 0 0 0 0 0 0 0 0 0 0 0 0 0 0 0 2 9 9 2 1 0 0 0 4 11 15 2 5 4 7 12 22 1 9 70 10 3 0 4 3 11
0 0 0 0 0 0 0 0 0 0 0 0 0 0 0 0 0 0 4 4 1 0 0 0 1 9 7 9 19 5 1 4 7 7 10 28 65 0 3 25 1 8 15
0 0 0 0 0 0 0 0 0 0 0 0 0 0 0 0 0 0 3 1 0 0 0 0 0 10 12 9 16 12 11 14 1 0 2 3 3 4 7 21 24 15 7
0 0 0 0 0 0 0 0 0 0 0 0 0 0 0 0 0 0 1 1 0 0 0 0 0 6 12 12 13 14 26 2 8 3 2 0 4 2 0 8 7 5 1
0 0 0 0 0 0 0 0 0 0 0 0 0 0 0 0 0 0 0 0 0 0 0 0 0 0 2 1 2 13 17 8 1 3 5 2 1 1 0 4 4 3 1
0 0 0 0 0 0 0 0 0 0 0 0 0 0 0 0 0 0 0 0 0 0 0 0 0 0 0 0 0 1 0 0 0 0 0 1 5 5 6 8 4 1 0
0 0 0 0 0 0 0 0 0 0 0 0 0 0 0 0 0 0 0 0 0 0 0 0 0 0 0 0 0 0 0 0 0 0 0 0 0 0 0 2 2 1 2
0 0 0 0 0 0 0 0 0 0 0 0 0 0 0 0 0 1 6 6 0 0 1 0 0 0 0 0 0 0 0 0 0 0 0 0 0 0 0 0 4 2 2
0 0 0 0 0 0 0 0 0 0 0 0 0 0 1 0 1 3 6 3 2 0 1 0 0 0 0 0 0 0 0 0 0 0 0 0 0 0 0 0 0 0 1
0 0 0 0 0 0 0 0 0 0 0 0 0 1 0 0 0 1 0 0 0 0 0 0 0 0 0 0 0 0 0 0 0 0 0 0 0 0 0 0 0 0 0
0 0 0 0 0 0 0 0 0 0 0 0 0 0 0 0 0 0 0 0 0 0 0 0 0 0 0 0 0 0 0 0 0 0 0 0 0 0 0 0 0 0 0
0 0 0 0 0 0 0 0 0 0 0 0 0 0 0 0 0 0 0 0 0 0 0 0 0 0 1 0 0 0 0 0 0 0 0 0 0 0 0 0 0 0 0
0 0 0 0 0 0 0 0 0 0 0 0 0 0 0 0 0 0 0 0 0 1 1 1 1 1 1 1 1 1 0 0 0 0 0 0 0 0 0 0 0 0 0
0 0 0 0 0 0 0 0 0 0 0 0 0 0 0 0 0 0 0 0 1 2 3 3 2 1 1 2 2 2 1 0 0 0 0 0 0 0 0 0 0 0 0
0 0 0 0 0 0 0 0 0 0 0 0 0 0 1 1 0 0 0 2 0 0 1 3 3 3 2 4 2 2 0 0 1 2 1 0 0 0 0 0 0 0 0
0 0 0 0 0 0 0 0 0 0 0 0 0 0 0 2 2 2 1 0 1 0 0 4 4 3 3 5 5 3 3 2 2 2 2 0 0 0 0 0 0 0 0
0 0 0 0 1 1 1 0 0 0 0 0 0 0 1 2 2 1 2 2 1 0 0 2 5 4 4 5 6 3 0 1 0 0 2 0 0 0 0 0 0 0 0
0 0 0 0 0 0 1 1 0 0 0 0 0 0 1 1 1 1 2 3 1 1 0 0 1 1 1 0 0 0 1 0 5 1 0 0 0 0 0 0 0 0 0
0 0 0 0 0 1 2 1 0 0 0 0 1 1 3 1 2 2 2 0 1 1 1 0 2 0 0 0 0 0 0 0 5 0 0 0 0 0 0 0 0 0 0
0 0 0 0 1 2 3 1 0 0 1 1 0 1 1 1 1 2 0 0 2 1 1 0 0 0 0 0 0 2 2 0 3 0 0 0 0 0 0 0 0 0 0